Temperature
13 13 13 13 13 13 13 13 13 13 13 13 13 13 13 13 13 13 13 13 13 13 13 13 13 13 13 13 13 13 13 13 13 13 13 13 12 12 12 12 12 12 12
13 13 13 13 13 13 13 13 13 13 13 13 13 13 13 13 13 13 13 13 13 13 13 13 13 13 13 13 13 13 13 13 13 12 12 12 12 12 12 12 12 12 12
13 13 13 13 13 12 12 12 12 12 12 12 12 12 12 12 13 13 13 13 13 13 13 13 13 13 13 13 13 13 13 12 12 12 12 12 12 12 12 12 12 12 12
12 12 12 12 12 12 12 12 12 12 12 12 12 12 12 12 12 12 12 12 12 12 12 12 12 12 12 12 12 12 12 12 12 12 12 12 12 12 12 12 11 11 11
12 12 12 12 12 12 12 11 11 11 11 11 12 12 12 12 12 12 12 12 12 12 12 12 12 12 12 12 12 12 12 12 12 12 12 11 11 11 11 11 11 11 11
11 11 11 11 11 11 11 11 11 11 11 11 11 11 11 11 11 11 11 11 11 11 11 12 12 12 12 12 12 12 11 11 11 11 11 11 11 11 11 11 11 11 11
11 11 11 11 11 11 11 11 10 10 10 10 10 10 10 11 11 11 11 11 11 11 11 11 11 11 11 11 11 11 11 11 11 11 11 11 11 11 11 10 10 10 10
10 10 10 10 10 10 10 10 10 10 10 10 10 9 9 10 10 10 10 10 10 10 11 11 10 10 11 11 11 10 11 10 10 10 10 10 10 10 10 10 10 10 10
10 10 10 10 10 10 10 9 9 9 9 9 9 9 9 9 9 10 10 10 10 10 10 10 10 10 10 10 10 10 10 10 10 10 10 10 9 9 9 9 9 9 9
9 9 9 9 9 9 9 9 9 9 9 9 9 9 9 8 9 9 9 9 10 10 10 10 10 10 10 10 9 9 9 9 9 9 9 9 9 8 8 8 9 9 9
9 9 9 9 9 9 9 9 9 9 9 8 8 8 8 8 8 8 8 9 9 9 9 9 9 9 9 9 9 9 9 9 9 9 9 8 8 8 8 8 8 8 8
9 8 8 8 8 8 8 8 8 8 8 8 8 8 8 8 8 8 8 8 8 8 8 8 8 8 8 8 8 8 8 8 8 8 8 8 8 8 8 8 8 8 8
8 8 8 8 8 8 8 8 8 8 8 8 8 8 8 8 7 7 7 7 7 7 7 8 8 8 8 8 8 8 7 7 7 7 7 7 7 7 7 7 7 7 7
8 8 8 7 7 7 7 7 7 7 7 7 7 7 7 7 7 7 7 7 7 6 7 7 7 7 7 7 7 7 7 7 7 7 7 7 7 7 7 7 7 7 7
7 7 7 7 7 7 7 7 7 7 7 7 7 7 7 7 7 6 6 6 6 6 6 6 6 6 6 6 6 6 6 6 6 6 6 6 6 6 6 6 6 6 6
7 7 7 7 7 7 7 7 7 7 7 7 6 6 6 6 6 6 6 6 6 6 5 5 5 6 6 6 6 6 6 6 6 6 6 6 6 6 6 6 5 5 5
7 6 6 6 6 6 6 6 6 6 6 6 6 6 6 6 6 6 5 5 5 5 5 5 5 5 5 5 5 5 5 5 5 5 5 5 5 5 5 5 5 5 5
6 6 6 6 6 6 6 6 6 6 6 6 6 5 5 5 5 5 5 5 5 5 5 5 5 4 4 4 4 5 5 5 5 5 4 4 4 4 4 4 4 4 4
6 6 6 6 6 5 5 5 5 5 5 5 5 5 5 5 5 5 5 4 4 4 4 4 4 4 4 4 4 4 4 4 4 4 4 4 3 4 4 3 3 4 4
5 5 5 5 5 5 5 5 5 5 5 5 5 4 4 4 4 4 4 4 4 3 3 3 3 3 3 3 3 3 3 3 3 3 3 3 3 3 3 3 3 3 3
5 5 5 5 5 4 4 4 4 4 4 4 4 4 4 4 3 3 3 3 3 3 3 3 3 3 3 2 2 2 2 3 3 2 2 2 2 2 2 2 2 2 2
4 4 4 4 4 4 4 4 4 4 3 3 3 3 3 3 3 3 3 2 2 2 2 2 2 2 2 2 1 1 1 1 1 2 1 2 2 2 2 2 2 2 2
4 4 4 4 4 4 3 3 3 3 3 3 3 3 3 2 2 2 2 2 2 2 2 1 1 1 1 1 1 1 0 0 0 1 0 1 2 1 2 2 1 1 1
4 4 4 4 3 3 3 3 3 3 3 2 2 2 2 2 2 1 1 1 1 1 1 1 1 1 1 0 0 0 -0 -0 -0 0 -0 0 1 1 1 1 1 1 1
4 3 3 3 3 3 3 3 2 2 2 2 2 2 2 2 1 1 1 1 1 1 1 1 0 0 0 -0 -0 -0 -0 -1 -1 -0 -1 -1 -1 -0 1 1 1 0 0
3 3 3 3 3 3 3 2 2 2 2 2 2 1 1 1 1 1 0 0 0 0 0 0 -0 -0 -0 -1 -1 -1 -1 -1 -2 -2 -1 -2 -2 -2 -2 -1 -0 -0 -0
Wind_Speed
1 0 1 1 2 2 2 2 3 3 4 4 5 5 5 6 7 7 8 11 13 13 13 14 14 13 12 12 12 12 11 11 10 9 9 9 9 8 8 9 9 8 8
1 1 1 1 2 2 2 3 3 3 3 3 3 4 4 5 6 7 8 9 11 13 14 15 15 14 13 12 12 12 11 11 10 9 8 8 8 8 7 7 7 7 8
1 1 1 1 2 3 3 2 2 1 1 2 3 3 3 3 4 5 6 7 8 10 12 13 14 13 13 13 12 12 11 11 10 10 9 9 8 7 7 7 7 7 8
2 1 1 1 2 2 1 1 2 1 1 2 2 3 3 3 4 4 5 6 6 7 8 10 10 11 11 12 12 12 11 10 10 10 9 8 8 8 8 8 9 9 9
4 2 1 2 2 1 1 2 1 1 2 2 3 3 3 3 3 4 4 5 5 6 6 7 8 9 9 11 11 10 10 9 9 9 9 9 8 9 9 9 10 10 10
4 3 2 3 2 1 1 1 2 2 2 2 3 3 3 3 3 3 3 3 3 4 4 4 5 5 5 6 7 7 7 8 8 8 9 9 9 10 10 10 11 11 11
4 3 2 3 2 2 2 2 2 2 2 1 1 2 3 2 2 2 2 2 2 2 2 3 3 3 3 4 5 6 7 7 8 8 9 9 10 10 11 11 12 12 12
3 3 2 2 2 2 2 2 1 1 2 1 0 1 2 3 2 1 1 1 1 0 1 2 2 2 3 2 3 5 6 7 8 9 9 10 10 11 12 12 12 12 12
4 3 3 3 3 2 2 2 1 1 2 2 1 1 1 3 3 2 2 1 1 1 1 0 0 1 1 2 2 3 4 5 7 9 10 10 11 11 12 12 13 12 13
3 4 3 3 3 2 1 2 1 1 1 2 2 2 1 1 2 2 2 1 1 1 1 1 0 0 0 0 2 3 4 6 8 9 10 11 12 12 13 13 13 13 14
3 3 3 3 3 2 2 2 2 1 1 2 2 1 1 1 2 2 3 2 2 1 1 1 1 0 1 1 2 4 5 6 8 9 10 10 11 12 13 13 13 14 14
2 3 3 3 2 2 2 2 2 2 2 2 2 2 1 1 2 2 3 3 3 3 1 1 1 1 1 1 2 4 5 6 7 8 10 11 11 11 12 13 13 13 13
3 3 3 2 2 2 3 2 2 2 2 2 3 3 2 3 2 2 3 3 3 3 2 1 1 0 1 1 2 3 4 6 7 8 9 10 11 11 11 12 13 13 13
3 3 3 3 3 3 2 1 1 2 2 2 3 3 2 2 2 2 2 2 3 3 2 3 1 1 1 1 2 2 4 6 7 8 9 10 10 11 11 12 12 12 12
3 3 3 3 3 2 2 2 1 2 2 2 2 2 2 2 2 2 2 2 3 4 4 3 2 1 1 1 2 3 4 6 7 8 8 9 9 10 10 11 11 11 12
3 3 3 3 3 3 2 2 2 2 2 2 2 2 2 2 2 1 1 2 2 3 4 2 2 1 2 2 3 4 5 6 7 8 8 9 9 10 10 10 11 11 12
3 3 3 3 3 3 3 2 2 2 2 2 2 1 2 1 1 1 1 1 2 2 4 3 1 2 1 2 3 4 5 6 6 8 9 9 9 9 10 10 11 11 11
4 4 3 3 4 3 3 3 3 3 3 3 2 2 2 1 1 1 1 2 2 2 3 4 2 2 2 2 2 3 4 5 6 8 9 9 9 9 10 11 11 11 11
4 4 4 4 4 4 3 3 3 4 4 4 3 3 3 2 2 2 2 2 2 2 1 2 3 2 2 2 3 3 3 3 5 7 8 8 9 9 10 11 11 11 11
5 5 5 5 5 4 4 4 3 4 3 3 3 3 3 3 4 3 2 2 2 2 2 2 3 2 2 2 1 2 4 3 4 5 7 7 8 10 11 11 11 11 11
5 5 5 5 5 4 4 4 4 4 4 3 3 3 3 4 5 4 3 3 2 2 2 2 3 2 2 2 2 2 3 4 4 2 3 4 5 6 7 9 10 10 11
5 5 5 5 5 5 6 7 5 4 4 4 4 4 3 4 4 5 5 4 4 4 4 3 3 3 3 3 2 2 3 3 3 2 3 6 3 4 5 6 10 11 12
5 5 6 6 6 7 8 8 8 5 5 5 5 4 4 4 4 3 4 4 4 5 6 5 4 4 4 3 3 3 3 3 4 4 3 5 3 4 5 8 11 11 11
6 6 6 6 6 7 9 9 8 6 5 6 5 5 5 4 4 4 3 3 3 3 4 4 4 4 4 3 3 3 3 3 3 3 2 3 3 4 6 7 10 10 11
6 6 5 6 7 7 9 9 8 4 5 6 6 6 6 5 7 6 4 4 4 3 2 2 2 2 2 3 2 1 1 2 3 2 1 1 2 4 5 5 6 10 13
6 6 6 6 7 7 9 10 9 4 5 5 5 5 7 7 7 6 5 5 5 4 2 1 1 1 1 2 2 0 1 2 2 2 1 1 2 3 4 3 4 7 9
Wind_Direction
306 304 302 301 289 283 268 272 271 274 272 268 260 250 239 226 224 224 228 229 230 231 233 234 232 229 227 229 230 232 233 235 235 238 241 241 244 249 254 258 262 264 268
29 334 294 288 293 287 275 262 266 266 267 263 262 258 247 231 223 222 228 233 234 234 237 240 237 234 232 234 235 235 234 234 235 236 240 242 245 250 255 258 263 266 269
36 19 302 293 296 295 293 285 280 278 284 277 269 262 254 242 233 228 232 233 235 238 239 243 244 240 238 238 241 241 237 237 236 238 240 242 243 245 249 256 262 268 271
14 25 306 284 300 302 303 281 274 281 289 279 275 270 260 248 241 241 238 234 233 234 236 240 246 246 242 243 244 246 244 240 238 240 244 245 247 248 250 256 261 265 269
13 14 330 313 317 310 297 277 279 266 274 277 272 269 265 258 247 246 244 235 228 228 229 235 238 246 248 250 251 251 253 251 246 245 247 248 251 256 257 259 262 266 269
16 15 351 333 334 315 307 298 277 270 254 260 283 290 278 268 257 241 235 225 221 223 224 232 234 243 249 257 258 260 263 264 254 249 254 256 259 261 262 265 266 267 270
16 13 357 342 340 311 297 300 285 281 278 276 322 314 305 287 257 242 228 209 207 215 210 219 222 229 244 251 260 266 271 271 268 261 259 260 262 265 266 267 267 268 270
5 358 347 331 321 308 317 321 311 288 277 258 180 297 298 309 296 277 262 234 236 213 205 235 224 228 228 226 256 262 270 276 279 279 275 270 268 268 269 268 268 270 273
357 349 335 324 312 296 290 291 283 272 272 278 262 200 216 248 293 296 274 248 226 248 287 314 197 225 232 234 258 268 271 281 287 288 288 284 278 276 275 273 272 273 274
349 345 330 325 320 306 295 285 296 254 238 274 290 281 247 236 248 286 303 304 278 253 255 293 331 227 282 305 302 294 287 282 283 289 289 288 286 281 279 277 277 275 273
332 334 333 332 324 309 296 288 283 270 243 245 255 276 276 285 252 244 274 295 306 282 263 258 229 220 277 317 319 302 295 292 291 293 296 297 297 291 285 285 284 282 280
314 324 324 321 313 312 299 287 276 276 264 250 250 241 234 240 250 245 256 271 279 286 286 259 231 236 251 305 307 312 300 301 302 302 301 301 304 306 297 292 292 293 291
296 300 315 307 308 303 298 296 287 286 270 248 240 241 241 244 243 238 246 259 268 285 292 294 256 236 270 310 309 311 310 313 312 310 308 309 310 309 308 303 302 302 301
270 276 288 289 293 298 305 313 300 288 277 261 254 245 249 255 252 233 226 229 261 275 270 267 280 276 309 303 309 302 310 308 309 311 312 315 317 314 311 307 304 302 302
268 270 271 279 282 284 282 278 281 284 284 272 261 253 248 260 263 262 250 223 221 251 261 259 262 287 317 312 310 307 308 305 306 308 312 315 315 315 313 311 309 307 304
259 266 270 274 274 270 267 263 269 275 276 279 271 263 257 263 262 266 264 264 244 236 254 255 253 292 307 322 311 313 304 304 307 310 314 314 313 313 313 312 310 308 306
250 251 255 261 264 262 257 247 251 261 262 274 280 264 270 271 269 276 269 257 251 234 248 273 292 302 296 305 324 325 317 309 310 310 312 312 312 312 313 312 310 309 309
245 243 244 249 258 259 250 238 243 245 242 252 260 258 273 271 261 276 263 252 250 241 232 257 282 290 280 283 297 305 319 315 311 314 315 314 313 314 314 313 312 312 313
242 241 233 240 250 251 247 244 239 240 236 237 243 242 252 247 251 254 253 254 259 263 245 238 265 273 279 292 305 308 314 316 317 317 318 317 314 317 317 314 313 313 313
237 238 234 236 241 240 239 242 243 242 239 238 241 239 237 230 237 237 244 247 246 248 249 247 261 272 280 285 293 301 312 314 308 318 319 316 317 321 320 318 317 316 314
236 236 234 238 238 233 232 230 233 235 239 248 250 245 240 237 233 228 233 231 226 231 235 244 257 271 278 284 281 277 294 307 300 305 311 309 313 314 318 317 316 315 315
240 235 231 232 236 238 234 230 226 227 231 239 250 253 251 246 245 240 241 236 221 220 224 227 243 249 262 265 268 279 292 312 303 305 311 300 298 296 305 310 312 317 318
238 238 236 232 235 237 235 236 228 222 226 233 237 242 251 250 245 244 251 255 250 237 225 215 226 239 244 243 247 262 267 270 271 286 299 285 289 290 300 308 314 317 322
237 237 238 235 238 240 234 234 231 224 228 234 233 229 234 242 234 227 231 244 248 249 237 220 220 236 240 241 237 246 256 272 273 277 271 277 303 297 306 308 310 320 326
241 238 234 232 235 242 234 233 229 219 229 238 236 230 226 231 240 234 226 232 244 256 262 228 223 237 283 295 285 259 283 298 298 297 311 278 302 311 305 297 305 318 322
241 241 242 234 232 238 237 233 225 216 228 238 239 236 231 231 239 233 221 222 234 240 227 222 248 309 325 321 325 223 233 259 285 284 306 317 302 329 313 294 302 316 319
Height
1522 1522 1522 1522 1522 1522 1522 1522 1522 1522 1522 1522 1523 1523 1523 1523 1524 1524 1525 1525 1526 1526 1526 1527 1527 1527 1527 1527 1527 1528 1528 1528 1528 1528 1528 1528 1528 1528 1527 1527 1527 1526 1526
1519 1519 1519 1519 1519 1519 1519 1519 1519 1519 1519 1519 1520 1520 1520 1520 1520 1521 1521 1522 1522 1522 1523 1523 1523 1523 1524 1524 1524 1524 1525 1525 1525 1525 1525 1525 1525 1524 1524 1524 1523 1523 1522
1516 1516 1516 1516 1516 1516 1516 1516 1516 1516 1516 1516 1516 1516 1517 1517 1517 1517 1517 1518 1518 1519 1519 1519 1520 1520 1520 1520 1520 1520 1520 1521 1521 1521 1521 1521 1521 1520 1520 1520 1520 1519 1519
1514 1514 1514 1514 1513 1513 1513 1512 1512 1512 1512 1512 1512 1512 1513 1513 1513 1513 1513 1514 1514 1514 1515 1515 1515 1515 1516 1516 1516 1516 1516 1516 1517 1517 1517 1517 1517 1516 1516 1516 1516 1515 1515
1512 1512 1511 1511 1510 1510 1509 1509 1509 1509 1508 1508 1508 1508 1508 1508 1509 1509 1509 1509 1509 1510 1510 1510 1511 1511 1511 1512 1512 1512 1512 1512 1512 1512 1512 1512 1512 1512 1512 1512 1511 1511 1511
1509 1509 1508 1508 1507 1506 1506 1506 1506 1506 1505 1505 1504 1504 1504 1504 1504 1504 1505 1505 1505 1505 1506 1506 1506 1507 1507 1507 1507 1507 1507 1507 1507 1507 1507 1507 1507 1507 1507 1507 1507 1506 1506
1506 1506 1505 1504 1504 1503 1503 1503 1502 1502 1502 1502 1501 1500 1500 1500 1500 1501 1501 1501 1501 1501 1502 1502 1502 1503 1502 1503 1503 1503 1503 1503 1503 1503 1503 1503 1502 1502 1502 1502 1502 1501 1501
1503 1503 1502 1501 1500 1500 1500 1499 1499 1499 1498 1499 1498 1497 1497 1497 1496 1497 1497 1497 1497 1498 1498 1498 1498 1498 1498 1498 1498 1498 1498 1498 1498 1499 1498 1498 1497 1497 1497 1497 1496 1496 1496
1501 1500 1499 1498 1497 1497 1496 1496 1496 1495 1495 1495 1496 1496 1495 1493 1493 1493 1493 1493 1494 1493 1494 1494 1494 1494 1494 1494 1494 1494 1494 1493 1493 1494 1493 1493 1492 1492 1492 1492 1491 1490 1490
1498 1497 1496 1495 1494 1494 1493 1493 1492 1492 1492 1492 1492 1492 1493 1492 1492 1490 1490 1490 1490 1490 1490 1490 1490 1490 1490 1490 1489 1489 1489 1489 1489 1489 1488 1488 1487 1487 1487 1486 1486 1485 1484
1495 1494 1493 1492 1491 1491 1490 1490 1490 1489 1489 1489 1489 1489 1489 1489 1489 1488 1486 1486 1486 1486 1486 1486 1486 1485 1485 1485 1485 1485 1485 1484 1484 1484 1483 1483 1482 1482 1481 1480 1480 1480 1479
1492 1491 1490 1489 1488 1488 1487 1487 1486 1486 1485 1485 1486 1485 1485 1485 1485 1485 1484 1483 1482 1482 1482 1482 1482 1481 1481 1481 1481 1480 1480 1480 1479 1479 1479 1478 1477 1476 1475 1475 1474 1474 1473
1489 1488 1487 1486 1485 1485 1484 1483 1483 1482 1482 1482 1482 1481 1481 1482 1482 1482 1481 1480 1479 1479 1478 1478 1478 1477 1477 1477 1476 1476 1475 1475 1475 1474 1474 1473 1472 1471 1470 1469 1469 1468 1467
1485 1485 1484 1483 1482 1482 1481 1480 1479 1479 1478 1478 1478 1477 1477 1477 1478 1477 1477 1477 1476 1475 1474 1474 1474 1473 1473 1473 1472 1472 1471 1470 1470 1469 1469 1468 1467 1466 1465 1464 1463 1462 1462
1482 1482 1481 1480 1479 1478 1478 1477 1476 1476 1475 1474 1474 1473 1473 1473 1473 1473 1473 1473 1474 1471 1470 1470 1470 1469 1469 1468 1468 1467 1467 1466 1465 1464 1464 1463 1462 1461 1460 1459 1458 1457 1456
1479 1478 1477 1476 1476 1475 1474 1474 1473 1472 1472 1471 1470 1469 1469 1469 1468 1469 1469 1469 1469 1469 1467 1466 1466 1466 1465 1464 1464 1463 1462 1462 1461 1460 1459 1458 1457 1456 1454 1453 1452 1451 1450
1475 1474 1473 1472 1472 1471 1471 1470 1469 1469 1468 1467 1467 1466 1465 1465 1464 1464 1464 1464 1464 1464 1463 1462 1462 1461 1461 1460 1460 1459 1458 1457 1456 1455 1454 1453 1452 1450 1449 1448 1447 1446 1444
1471 1471 1470 1469 1468 1467 1467 1466 1465 1464 1464 1463 1463 1462 1461 1461 1460 1460 1460 1460 1460 1459 1459 1458 1457 1457 1456 1456 1455 1454 1454 1453 1451 1450 1449 1448 1447 1445 1444 1443 1441 1440 1438
1467 1467 1466 1465 1464 1463 1462 1461 1461 1460 1459 1459 1458 1458 1457 1457 1456 1456 1455 1455 1455 1455 1455 1454 1453 1453 1452 1452 1451 1450 1449 1448 1447 1446 1445 1443 1442 1440 1439 1437 1436 1434 1433
1463 1462 1461 1460 1460 1459 1458 1457 1457 1456 1455 1455 1454 1453 1453 1452 1452 1451 1451 1451 1451 1451 1450 1450 1449 1449 1448 1447 1447 1445 1444 1443 1442 1441 1440 1439 1437 1435 1434 1432 1431 1429 1427
1458 1458 1457 1456 1455 1455 1454 1453 1452 1452 1451 1450 1450 1449 1449 1448 1447 1447 1447 1447 1447 1446 1446 1445 1445 1444 1444 1443 1442 1441 1439 1438 1437 1437 1435 1434 1432 1430 1429 1427 1425 1423 1422
1454 1453 1452 1452 1451 1450 1450 1449 1448 1447 1447 1446 1445 1445 1444 1444 1443 1443 1443 1443 1443 1443 1442 1442 1441 1440 1440 1439 1438 1437 1435 1434 1432 1433 1430 1429 1428 1425 1424 1422 1420 1418 1416
1449 1448 1448 1447 1446 1446 1445 1445 1444 1443 1442 1442 1441 1440 1440 1440 1439 1439 1439 1438 1438 1438 1438 1438 1437 1436 1436 1435 1434 1433 1432 1431 1429 1427 1426 1423 1422 1420 1418 1416 1414 1413 1411
1444 1443 1442 1442 1441 1441 1441 1440 1439 1439 1438 1437 1437 1436 1436 1435 1435 1435 1435 1434 1434 1434 1434 1434 1433 1433 1432 1431 1431 1430 1428 1427 1425 1424 1422 1419 1416 1414 1413 1411 1410 1408 1406
1438 1438 1437 1437 1436 1436 1435 1435 1434 1433 1433 1432 1432 1432 1431 1431 1431 1431 1431 1430 1430 1430 1430 1429 1429 1428 1428 1427 1427 1426 1425 1423 1421 1419 1418 1416 1412 1409 1407 1406 1404 1403 1400
1433 1433 1432 1431 1431 1430 1430 1430 1429 1428 1428 1428 1427 1427 1427 1427 1427 1426 1426 1426 1426 1426 1426 1425 1425 1425 1424 1424 1423 1422 1421 1420 1417 1415 1414 1412 1409 1406 1401 1399 1399 1397 1395